CMP862 MPTO-KMCO

Flight info

Callsign CMP862
Flight time 3h 2m
Altitude 35000
Route SIMAN3A SIMAN DCT SEKMA DCT DAGAS/N0465F360 UM542 SIA UM347 EPSIM DCT ULISU DCT KAVGA DCT IKBIX/N0461F370 Y183 PEAKY Q87 GOPEY Y262 LINEY DCT KUTNE RIDES2
Aircraft B38M/M-SDE1FGHILORVWXY/HB1

Departure

Time 2026-04-20 20:59
Airport Tocumen International Airport (MPTO)

Arrival

Time 2026-04-21 00:02
Airport Orlando International Airport (KMCO)
Time Latitude Longitude Altitude Speed Heading
2026-04-20 20:37 9.06711 -79.38562 32 ft 0 kts 300°
2026-04-20 20:50 9.06707 -79.38554 32 ft 2 kts 297°
2026-04-20 20:50 9.06700 -79.38539 32 ft 2 kts 296°
2026-04-20 20:50 9.06693 -79.38524 32 ft 2 kts 292°
2026-04-20 20:51 9.06687 -79.38509 32 ft 2 kts 288°
2026-04-20 20:51 9.06682 -79.38492 32 ft 2 kts 281°
2026-04-20 20:51 9.06680 -79.38476 32 ft 2 kts 269°
2026-04-20 20:51 9.06682 -79.38459 32 ft 2 kts 248°
2026-04-20 20:52 9.06691 -79.38445 32 ft 2 kts 223°
2026-04-20 20:52 9.06700 -79.38438 32 ft 1 kts 210°
2026-04-20 20:52 9.06701 -79.38437 32 ft 0 kts 210°
2026-04-20 20:54 9.06699 -79.38438 32 ft 1 kts 206°
2026-04-20 20:54 9.06658 -79.38422 32 ft 11 kts 131°
2026-04-20 20:55 9.06586 -79.38400 32 ft 13 kts 201°
2026-04-20 20:55 9.06488 -79.38453 32 ft 20 kts 209°
2026-04-20 20:55 9.06338 -79.38540 32 ft 28 kts 210°
2026-04-20 20:55 9.06159 -79.38642 32 ft 30 kts 209°
2026-04-20 20:56 9.05975 -79.38748 32 ft 31 kts 209°
2026-04-20 20:56 9.05785 -79.38858 32 ft 32 kts 211°
2026-04-20 20:56 9.05591 -79.38971 32 ft 33 kts 211°
2026-04-20 20:56 9.05391 -79.39087 32 ft 34 kts 210°
2026-04-20 20:57 9.05186 -79.39203 32 ft 34 kts 210°
2026-04-20 20:57 9.04976 -79.39323 33 ft 35 kts 210°
2026-04-20 20:57 9.04852 -79.39376 33 ft 15 kts 165°
2026-04-20 20:57 9.04793 -79.39294 34 ft 15 kts 106°
2026-04-20 20:58 9.04859 -79.39205 34 ft 23 kts 30°
2026-04-20 20:58 9.05134 -79.39050 33 ft 76 kts 30°
2026-04-20 20:58 9.05773 -79.38685 34 ft 133 kts 31°
2026-04-20 20:58 9.06725 -79.38140 99 ft 176 kts 29°
2026-04-20 20:59 9.07871 -79.37498 625 ft 192 kts 28°
2026-04-20 20:59 9.09042 -79.36836 1551 ft 192 kts 28°
2026-04-20 20:59 9.10206 -79.36168 2291 ft 197 kts 28°
2026-04-20 20:59 9.11470 -79.35516 2793 ft 214 kts 17°
2026-04-20 21:00 9.13025 -79.35490 3115 ft 239 kts 345°
2026-04-20 21:00 9.14599 -79.36210 3581 ft 258 kts 335°
2026-04-20 21:00 9.16295 -79.36834 4373 ft 260 kts 343°
2026-04-20 21:00 9.18038 -79.37437 5056 ft 268 kts 342°
2026-04-20 21:01 9.19806 -79.38074 5797 ft 271 kts 341°
2026-04-20 21:01 9.21597 -79.38730 6470 ft 276 kts 341°
2026-04-20 21:01 9.23410 -79.39401 7170 ft 280 kts 341°
2026-04-20 21:01 9.25227 -79.40079 7844 ft 283 kts 341°
2026-04-20 21:02 9.27090 -79.40777 8585 ft 287 kts 341°
2026-04-20 21:02 9.28968 -79.41482 9302 ft 290 kts 342°
2026-04-20 21:02 9.30874 -79.42197 9981 ft 294 kts 341°
2026-04-20 21:02 9.32829 -79.42929 10463 ft 306 kts 342°
2026-04-20 21:03 9.34884 -79.43695 10755 ft 324 kts 342°
2026-04-20 21:03 9.37062 -79.44503 11016 ft 341 kts 342°
2026-04-20 21:03 9.39337 -79.45349 11280 ft 354 kts 342°
2026-04-20 21:03 9.41668 -79.46221 11821 ft 359 kts 341°
2026-04-20 21:04 9.44026 -79.47106 12414 ft 363 kts 341°
2026-04-20 21:04 9.46410 -79.48003 13014 ft 367 kts 341°
2026-04-20 21:04 9.48819 -79.48910 13631 ft 371 kts 341°
2026-04-20 21:04 9.51251 -79.49823 14178 ft 374 kts 341°
2026-04-20 21:05 9.53701 -79.50746 14780 ft 377 kts 341°
2026-04-20 21:05 9.56167 -79.51674 15358 ft 379 kts 341°
2026-04-20 21:05 9.58654 -79.52610 15921 ft 382 kts 341°
2026-04-20 21:05 9.61122 -79.53539 16464 ft 385 kts 341°
2026-04-20 21:06 9.63676 -79.54501 17021 ft 388 kts 341°
2026-04-20 21:06 9.66185 -79.55446 17550 ft 390 kts 341°
2026-04-20 21:06 9.68737 -79.56407 18042 ft 393 kts 341°
2026-04-20 21:06 9.71309 -79.57376 18494 ft 396 kts 341°
2026-04-20 21:07 9.73908 -79.58355 18912 ft 398 kts 341°
2026-04-20 21:07 9.76514 -79.59338 19317 ft 401 kts 341°
2026-04-20 21:07 9.79138 -79.60327 19742 ft 403 kts 341°
2026-04-20 21:07 9.81777 -79.61322 20149 ft 406 kts 341°
2026-04-20 21:08 9.84424 -79.62319 20538 ft 408 kts 341°
2026-04-20 21:08 9.87102 -79.63330 20928 ft 411 kts 341°
2026-04-20 21:08 9.89785 -79.64342 21322 ft 413 kts 341°
2026-04-20 21:08 9.92486 -79.65361 21724 ft 415 kts 342°
2026-04-20 21:09 9.95208 -79.66388 22093 ft 418 kts 342°
2026-04-20 21:09 9.97942 -79.67421 22459 ft 420 kts 342°
2026-04-20 21:09 10.00693 -79.68459 22828 ft 423 kts 342°
2026-04-20 21:09 10.03459 -79.69504 23194 ft 425 kts 342°
2026-04-20 21:10 10.06238 -79.70553 23531 ft 428 kts 342°
2026-04-20 21:10 10.09002 -79.71598 23821 ft 430 kts 342°
2026-04-20 21:10 10.11809 -79.72658 24137 ft 431 kts 342°
2026-04-20 21:10 10.14627 -79.73724 24437 ft 433 kts 342°
2026-04-20 21:11 10.17457 -79.74793 24740 ft 435 kts 342°
2026-04-20 21:11 10.20339 -79.75883 25044 ft 437 kts 342°
2026-04-20 21:11 10.23164 -79.76952 25334 ft 439 kts 341°
2026-04-20 21:11 10.26033 -79.78037 25641 ft 441 kts 341°
2026-04-20 21:12 10.28920 -79.79129 25935 ft 443 kts 341°
2026-04-20 21:12 10.31820 -79.80226 26222 ft 445 kts 341°
2026-04-20 21:12 10.34723 -79.81325 26522 ft 447 kts 341°
2026-04-20 21:12 10.37659 -79.82369 26811 ft 447 kts 348°
2026-04-20 21:13 10.40728 -79.82761 27076 ft 445 kts
2026-04-20 21:13 10.43777 -79.82314 27321 ft 444 kts 18°
2026-04-20 21:13 10.46625 -79.81100 27562 ft 444 kts 29°
2026-04-20 21:13 10.49368 -79.79631 27816 ft 447 kts 29°
2026-04-20 21:14 10.52107 -79.78115 28073 ft 449 kts 30°
2026-04-20 21:14 10.54839 -79.76567 28358 ft 450 kts 30°
2026-04-20 21:14 10.57573 -79.74997 28622 ft 452 kts 30°
2026-04-20 21:14 10.60317 -79.73411 28867 ft 455 kts 30°
2026-04-20 21:15 10.63042 -79.71830 29128 ft 456 kts 31°
2026-04-20 21:15 10.65805 -79.70226 29381 ft 458 kts 30°
2026-04-20 21:15 10.68575 -79.68617 29615 ft 460 kts 30°
2026-04-20 21:15 10.71367 -79.66996 29871 ft 462 kts 30°
2026-04-20 21:16 10.74168 -79.65368 30097 ft 464 kts 30°
2026-04-20 21:16 10.76974 -79.63737 30292 ft 466 kts 30°
2026-04-20 21:16 10.79796 -79.62096 30491 ft 468 kts 30°
2026-04-20 21:16 10.82629 -79.60450 30687 ft 469 kts 30°
2026-04-20 21:17 10.85470 -79.58797 30886 ft 471 kts 30°
2026-04-20 21:17 10.88325 -79.57137 31150 ft 471 kts 30°
2026-04-20 21:17 10.91170 -79.55481 31428 ft 471 kts 30°
2026-04-20 21:17 10.94012 -79.53828 31714 ft 471 kts 31°
2026-04-20 21:18 10.96855 -79.52172 32001 ft 470 kts 31°
2026-04-20 21:18 10.99661 -79.50539 32284 ft 470 kts 31°
2026-04-20 21:18 11.02502 -79.48885 32578 ft 470 kts 31°
2026-04-20 21:18 11.05337 -79.47234 32863 ft 469 kts 31°
2026-04-20 21:19 11.08174 -79.45581 33135 ft 469 kts 31°
2026-04-20 21:19 11.11006 -79.43931 33423 ft 469 kts 31°
2026-04-20 21:19 11.13836 -79.42281 33703 ft 469 kts 31°
2026-04-20 21:20 11.19505 -79.38976 34212 ft 469 kts 31°
2026-04-20 21:20 11.22336 -79.37325 34442 ft 468 kts 31°
2026-04-20 21:20 11.24207 -79.36233 34619 ft 468 kts 31°
2026-04-20 21:20 11.27987 -79.34028 34885 ft 468 kts 31°
2026-04-20 21:21 11.30814 -79.32378 34904 ft 467 kts 31°
2026-04-20 21:21 11.36446 -79.29090 34911 ft 466 kts 31°
2026-04-20 21:22 11.42076 -79.25801 34912 ft 467 kts 31°
2026-04-20 21:22 11.46764 -79.23061 34910 ft 467 kts 31°
2026-04-20 21:23 11.53323 -79.19227 34912 ft 467 kts 31°
2026-04-20 21:23 11.58967 -79.15925 34912 ft 467 kts 31°
2026-04-20 21:24 11.64848 -79.13147 34908 ft 468 kts 12°
2026-04-20 21:24 11.70199 -79.12178 34921 ft 470 kts 12°
2026-04-20 21:25 11.76651 -79.10989 34917 ft 471 kts 11°
2026-04-20 21:25 11.83115 -79.09845 34916 ft 471 kts 11°
2026-04-20 21:26 11.89583 -79.08706 34916 ft 471 kts 11°
2026-04-20 21:26 11.96055 -79.07566 34914 ft 471 kts 11°
2026-04-20 21:27 12.02487 -79.06432 34918 ft 472 kts 11°
2026-04-20 21:27 12.08964 -79.05290 34917 ft 472 kts 11°
2026-04-20 21:28 12.15452 -79.04145 34915 ft 472 kts 11°
2026-04-20 21:28 12.21887 -79.03009 34915 ft 472 kts 11°
2026-04-20 21:29 12.28375 -79.01863 34917 ft 473 kts 11°
2026-04-20 21:29 12.34861 -79.00718 34917 ft 473 kts 11°
2026-04-20 21:30 12.41350 -78.99570 34920 ft 472 kts 10°
2026-04-20 21:30 12.47790 -78.98431 34920 ft 472 kts 10°
2026-04-20 21:31 12.54259 -78.97286 34919 ft 472 kts 10°
2026-04-20 21:31 12.60729 -78.96141 34921 ft 472 kts 10°
2026-04-20 21:32 12.67207 -78.94993 34921 ft 471 kts 10°
2026-04-20 21:32 12.73673 -78.93847 34924 ft 471 kts 10°
2026-04-20 21:33 12.80129 -78.92702 34920 ft 471 kts 10°
2026-04-20 21:33 12.86604 -78.91553 34924 ft 470 kts 10°
2026-04-20 21:34 12.93019 -78.90415 34923 ft 470 kts 10°
2026-04-20 21:34 12.99473 -78.89268 34928 ft 469 kts 10°
2026-04-20 21:35 13.05904 -78.88125 34925 ft 469 kts 10°
2026-04-20 21:35 13.12301 -78.86988 34927 ft 469 kts 10°
2026-04-20 21:36 13.18734 -78.85844 34927 ft 469 kts 10°
2026-04-20 21:36 13.25174 -78.84697 34928 ft 469 kts 10°
2026-04-20 21:37 13.31614 -78.83550 34931 ft 469 kts 10°
2026-04-20 21:37 13.38041 -78.82405 34929 ft 469 kts
2026-04-20 21:38 13.44470 -78.81259 34929 ft 469 kts
2026-04-20 21:38 13.50852 -78.80121 34932 ft 469 kts
2026-04-20 21:39 13.57291 -78.78972 34931 ft 469 kts
2026-04-20 21:39 13.63725 -78.77823 34931 ft 469 kts
2026-04-20 21:40 13.70151 -78.76674 34932 ft 469 kts
2026-04-20 21:40 13.76572 -78.75527 34933 ft 469 kts
2026-04-20 21:41 13.83005 -78.74376 34933 ft 469 kts
2026-04-20 21:41 13.89428 -78.73226 34933 ft 468 kts
2026-04-20 21:42 13.95816 -78.72083 34937 ft 468 kts
2026-04-20 21:42 14.02241 -78.70932 34938 ft 469 kts
2026-04-20 21:43 14.08668 -78.69779 34939 ft 469 kts
2026-04-20 21:43 14.15107 -78.68624 34940 ft 469 kts
2026-04-20 21:44 14.21544 -78.67469 34940 ft 470 kts
2026-04-20 21:44 14.27981 -78.66313 34940 ft 470 kts
2026-04-20 21:45 14.34428 -78.65155 34938 ft 470 kts
2026-04-20 21:45 14.40875 -78.63996 34942 ft 470 kts
2026-04-20 21:46 14.47321 -78.62836 34942 ft 470 kts
2026-04-20 21:46 14.53723 -78.61684 34943 ft 470 kts
2026-04-20 21:47 14.60168 -78.60523 34945 ft 470 kts
2026-04-20 21:47 14.66611 -78.59362 34945 ft 470 kts
2026-04-20 21:48 14.73046 -78.58201 34948 ft 470 kts
2026-04-20 21:48 14.79494 -78.57038 34950 ft 469 kts
2026-04-20 21:49 14.85940 -78.55875 34951 ft 470 kts
2026-04-20 21:49 14.92334 -78.54720 34946 ft 469 kts
2026-04-20 21:50 14.98776 -78.53556 34952 ft 469 kts
2026-04-20 21:50 15.05229 -78.52456 34948 ft 469 kts
2026-04-20 21:51 15.11665 -78.51355 34950 ft 469 kts
2026-04-20 21:51 15.18117 -78.50251 34950 ft 469 kts
2026-04-20 21:52 15.24520 -78.49154 34951 ft 469 kts
2026-04-20 21:52 15.30962 -78.48050 34952 ft 469 kts
2026-04-20 21:53 15.37403 -78.46945 34953 ft 468 kts
2026-04-20 21:53 15.43834 -78.45841 34950 ft 468 kts
2026-04-20 21:54 15.50257 -78.44738 34950 ft 468 kts
2026-04-20 21:54 15.56652 -78.43639 34956 ft 468 kts
2026-04-20 21:55 15.63087 -78.42533 34950 ft 468 kts
2026-04-20 21:55 15.69519 -78.41426 34957 ft 468 kts
2026-04-20 21:56 15.75938 -78.40321 34957 ft 468 kts
2026-04-20 21:56 15.82369 -78.39213 34959 ft 468 kts
2026-04-20 21:57 15.88790 -78.38106 34958 ft 468 kts
2026-04-20 21:57 15.95211 -78.36998 34958 ft 468 kts
2026-04-20 21:58 16.01629 -78.35891 34959 ft 468 kts
2026-04-20 21:58 16.08044 -78.34783 34960 ft 467 kts
2026-04-20 21:59 16.14427 -78.33680 34961 ft 467 kts
2026-04-20 21:59 16.20849 -78.32569 34963 ft 467 kts
2026-04-20 22:00 16.27262 -78.31459 34961 ft 467 kts
2026-04-20 22:00 16.33677 -78.30348 34959 ft 467 kts
2026-04-20 22:01 16.40059 -78.29243 34959 ft 467 kts
2026-04-20 22:01 16.46478 -78.28129 34967 ft 467 kts
2026-04-20 22:02 16.52896 -78.27015 34972 ft 467 kts
2026-04-20 22:02 16.59302 -78.25903 34970 ft 467 kts
2026-04-20 22:03 16.65683 -78.24794 34975 ft 467 kts
2026-04-20 22:03 16.72091 -78.23680 34966 ft 467 kts
2026-04-20 22:04 16.78504 -78.22564 34970 ft 467 kts
2026-04-20 22:04 16.84911 -78.21449 34966 ft 467 kts
2026-04-20 22:05 16.91330 -78.20330 34971 ft 467 kts
2026-04-20 22:05 16.97740 -78.19213 34967 ft 467 kts
2026-04-20 22:06 17.04150 -78.18094 34971 ft 467 kts
2026-04-20 22:06 17.10520 -78.16982 34975 ft 467 kts
2026-04-20 22:07 17.16931 -78.15862 34972 ft 467 kts
2026-04-20 22:07 17.23335 -78.14742 34977 ft 467 kts
2026-04-20 22:08 17.29734 -78.13623 34980 ft 466 kts
2026-04-20 22:08 17.36143 -78.12501 34968 ft 466 kts
2026-04-20 22:09 17.42506 -78.11386 34984 ft 466 kts
2026-04-20 22:09 17.48947 -78.10257 34984 ft 466 kts
2026-04-20 22:10 17.55298 -78.09142 34974 ft 466 kts
2026-04-20 22:10 17.61689 -78.08020 34984 ft 465 kts
2026-04-20 22:11 17.68092 -78.06895 34980 ft 465 kts
2026-04-20 22:11 17.74478 -78.05772 34981 ft 465 kts
2026-04-20 22:12 17.80860 -78.04649 34990 ft 465 kts
2026-04-20 22:12 17.86164 -78.03715 34990 ft 465 kts
2026-04-20 22:13 17.89356 -78.03153 34993 ft 464 kts
2026-04-20 22:14 17.91338 -78.02803 34993 ft 464 kts
2026-04-20 22:15 17.97715 -78.01679 34991 ft 464 kts
2026-04-20 22:15 18.04046 -78.00562 34999 ft 463 kts
2026-04-20 22:16 18.10405 -77.99439 34998 ft 463 kts
2026-04-20 22:16 18.13599 -77.98875 35127 ft 465 kts
2026-04-20 22:16 18.16786 -77.98312 35457 ft 463 kts
2026-04-20 22:16 18.19955 -77.97752 35734 ft 462 kts
2026-04-20 22:17 18.23125 -77.97191 35976 ft 461 kts
2026-04-20 22:17 18.29440 -77.96074 35990 ft 458 kts
2026-04-20 22:18 18.35690 -77.94967 35993 ft 458 kts
2026-04-20 22:18 18.41968 -77.93855 35994 ft 458 kts
2026-04-20 22:19 18.48252 -77.92741 35993 ft 457 kts
2026-04-20 22:19 18.51403 -77.92506 35980 ft 449 kts 352°
2026-04-20 22:19 18.54509 -77.92810 35979 ft 451 kts 354°
2026-04-20 22:20 18.60769 -77.93197 35991 ft 450 kts 353°
2026-04-20 22:20 18.67020 -77.93637 35994 ft 450 kts 353°
2026-04-20 22:21 18.73265 -77.94085 35993 ft 450 kts 353°
2026-04-20 22:21 18.79502 -77.94536 35994 ft 449 kts 352°
2026-04-20 22:22 18.85743 -77.94987 35998 ft 449 kts 352°
2026-04-20 22:22 18.91973 -77.95439 35997 ft 449 kts 352°
2026-04-20 22:23 18.98160 -77.95887 35997 ft 448 kts 352°
2026-04-20 22:23 19.04374 -77.96338 35994 ft 448 kts 352°
2026-04-20 22:23 19.07502 -77.96565 36106 ft 450 kts 352°
2026-04-20 22:24 19.10623 -77.96792 36404 ft 448 kts 352°
2026-04-20 22:24 19.13736 -77.97018 36671 ft 447 kts 352°
2026-04-20 22:24 19.16828 -77.97243 36931 ft 446 kts 352°
2026-04-20 22:25 19.23000 -77.97692 36992 ft 443 kts 352°
2026-04-20 22:25 19.29156 -77.98140 36996 ft 442 kts 352°
2026-04-20 22:26 19.35297 -77.98587 36995 ft 442 kts 352°
2026-04-20 22:26 19.41433 -77.99034 36996 ft 442 kts 352°
2026-04-20 22:27 19.50591 -77.99702 36993 ft 441 kts 352°
2026-04-20 22:27 19.56747 -78.00152 36995 ft 441 kts 352°
2026-04-20 22:28 19.62833 -78.00596 36995 ft 441 kts 352°
2026-04-20 22:28 19.68961 -78.01045 36999 ft 440 kts 352°
2026-04-20 22:29 19.75074 -78.01492 36997 ft 440 kts 352°
2026-04-20 22:29 19.81054 -78.02479 36988 ft 429 kts 333°
2026-04-20 22:30 19.86046 -78.05800 37001 ft 427 kts 323°
2026-04-20 22:30 19.90945 -78.09452 36998 ft 427 kts 322°
2026-04-20 22:31 19.95738 -78.13125 36998 ft 427 kts 322°
2026-04-20 22:31 20.00541 -78.16833 36998 ft 427 kts 322°
2026-04-20 22:32 20.05350 -78.20551 37001 ft 427 kts 322°
2026-04-20 22:32 20.10152 -78.24267 37000 ft 426 kts 322°
2026-04-20 22:33 20.14953 -78.27986 37001 ft 426 kts 322°
2026-04-20 22:33 20.19749 -78.31703 37000 ft 426 kts 322°
2026-04-20 22:34 20.24540 -78.35419 37000 ft 426 kts 322°
2026-04-20 22:34 20.29329 -78.39136 37000 ft 426 kts 322°
2026-04-20 22:35 20.34089 -78.42834 37003 ft 425 kts 322°
2026-04-20 22:35 20.38872 -78.46553 37006 ft 425 kts 322°
2026-04-20 22:36 20.43651 -78.50272 37007 ft 425 kts 322°
2026-04-20 22:36 20.48434 -78.53996 37005 ft 424 kts 322°
2026-04-20 22:37 20.53205 -78.57714 37004 ft 424 kts 322°
2026-04-20 22:37 20.57932 -78.61401 37005 ft 424 kts 322°
2026-04-20 22:38 20.62695 -78.65118 37006 ft 424 kts 322°
2026-04-20 22:38 20.67459 -78.68840 37005 ft 423 kts 322°
2026-04-20 22:39 20.72208 -78.72553 37005 ft 423 kts 322°
2026-04-20 22:39 20.76956 -78.76268 37001 ft 423 kts 321°
2026-04-20 22:40 20.81701 -78.79983 37005 ft 422 kts 321°
2026-04-20 22:40 20.86414 -78.83677 37006 ft 422 kts 321°
2026-04-20 22:41 20.91146 -78.87387 37010 ft 422 kts 321°
2026-04-20 22:41 20.95883 -78.91106 37003 ft 421 kts 321°
2026-04-20 22:42 21.00616 -78.94823 37004 ft 421 kts 321°
2026-04-20 22:42 21.05336 -78.98534 37006 ft 421 kts 321°
2026-04-20 22:43 21.10056 -79.02248 37010 ft 421 kts 321°
2026-04-20 22:43 21.14752 -79.05945 37007 ft 421 kts 321°
2026-04-20 22:44 21.19466 -79.09659 37011 ft 421 kts 321°
2026-04-20 22:44 21.24134 -79.13438 37003 ft 419 kts 316°
2026-04-20 22:45 21.28442 -79.17656 37013 ft 419 kts 316°
2026-04-20 22:45 21.32744 -79.21882 37009 ft 419 kts 316°
2026-04-20 22:46 21.37028 -79.26103 37016 ft 419 kts 315°
2026-04-20 22:46 21.41292 -79.30308 37012 ft 418 kts 315°
2026-04-20 22:47 21.45577 -79.34538 37016 ft 418 kts 315°
2026-04-20 22:47 21.49856 -79.38765 37017 ft 418 kts 315°
2026-04-20 22:48 21.54139 -79.43000 37019 ft 418 kts 315°
2026-04-20 22:48 21.58420 -79.47237 37023 ft 418 kts 315°
2026-04-20 22:49 21.62668 -79.51444 37031 ft 418 kts 315°
2026-04-20 22:49 21.66943 -79.55681 37027 ft 418 kts 315°
2026-04-20 22:50 21.71219 -79.59924 37032 ft 417 kts 315°
2026-04-20 22:50 21.75486 -79.64161 37031 ft 417 kts 315°
2026-04-20 22:51 21.79726 -79.68375 37037 ft 417 kts 315°
2026-04-20 22:51 21.83987 -79.72613 37042 ft 417 kts 315°
2026-04-20 22:52 21.88251 -79.76857 37039 ft 417 kts 315°
2026-04-20 22:52 21.92520 -79.81111 37039 ft 417 kts 315°
2026-04-20 22:53 21.96745 -79.85324 37045 ft 417 kts 315°
2026-04-20 22:53 22.01000 -79.89570 37049 ft 417 kts 315°
2026-04-20 22:54 22.05263 -79.93829 37052 ft 417 kts 315°
2026-04-20 22:54 22.09516 -79.98081 37054 ft 417 kts 315°
2026-04-20 22:55 22.13765 -80.02333 37046 ft 417 kts 315°
2026-04-20 22:55 22.17985 -80.06558 37045 ft 416 kts 315°
2026-04-20 22:56 22.22229 -80.10812 37048 ft 416 kts 315°
2026-04-20 22:56 22.26472 -80.15069 37050 ft 416 kts 315°
2026-04-20 22:57 22.30719 -80.19333 37047 ft 416 kts 315°
2026-04-20 22:57 22.34961 -80.23596 37049 ft 416 kts 315°
2026-04-20 22:58 22.39196 -80.27855 37048 ft 416 kts 315°
2026-04-20 22:58 22.43405 -80.32093 37045 ft 415 kts 315°
2026-04-20 22:59 22.47631 -80.36350 37044 ft 415 kts 315°
2026-04-20 22:59 22.51858 -80.40613 37047 ft 415 kts 314°
2026-04-20 23:00 22.56084 -80.44879 37049 ft 415 kts 314°
2026-04-20 23:00 22.59590 -80.48420 37051 ft 415 kts 314°
2026-04-20 23:01 22.63805 -80.52681 37050 ft 414 kts 314°
2026-04-20 23:01 22.68705 -80.57640 37051 ft 414 kts 314°
2026-04-20 23:02 22.72200 -80.61180 37054 ft 414 kts 314°
2026-04-20 23:02 22.76407 -80.65444 37058 ft 414 kts 314°
2026-04-20 23:03 22.80608 -80.69706 37061 ft 413 kts 314°
2026-04-20 23:03 22.84810 -80.73973 37061 ft 413 kts 314°
2026-04-20 23:04 22.89003 -80.78235 37065 ft 413 kts 314°
2026-04-20 23:04 22.93192 -80.82495 37064 ft 413 kts 314°
2026-04-20 23:05 22.97381 -80.86759 37068 ft 412 kts 314°
2026-04-20 23:05 23.01564 -80.91020 37068 ft 412 kts 314°
2026-04-20 23:06 23.05727 -80.95255 37075 ft 413 kts 315°
2026-04-20 23:06 23.08106 -80.97022 37078 ft 419 kts 330°
2026-04-20 23:06 23.10891 -80.98053 37079 ft 427 kts 340°
2026-04-20 23:07 23.16629 -80.99763 37062 ft 428 kts 339°
2026-04-20 23:07 23.22390 -81.01413 37071 ft 428 kts 340°
2026-04-20 23:08 23.28154 -81.03036 37076 ft 428 kts 340°
2026-04-20 23:08 23.33935 -81.04661 37074 ft 428 kts 339°
2026-04-20 23:09 23.39697 -81.06282 37082 ft 428 kts 339°
2026-04-20 23:09 23.45462 -81.07905 37077 ft 428 kts 339°
2026-04-20 23:10 23.51188 -81.09518 37080 ft 428 kts 339°
2026-04-20 23:10 23.56947 -81.11143 37075 ft 428 kts 339°
2026-04-20 23:11 23.62704 -81.12768 37080 ft 427 kts 339°
2026-04-20 23:11 23.68476 -81.14399 37081 ft 427 kts 339°
2026-04-20 23:12 23.74227 -81.16026 37078 ft 427 kts 339°
2026-04-20 23:12 23.79988 -81.17657 37075 ft 427 kts 339°
2026-04-20 23:13 23.85765 -81.19294 37077 ft 428 kts 339°
2026-04-20 23:13 23.91522 -81.20926 37076 ft 428 kts 339°
2026-04-20 23:14 23.97247 -81.22551 37080 ft 428 kts 339°
2026-04-20 23:14 24.00217 -81.23063 37064 ft 438 kts 353°
2026-04-20 23:14 24.03298 -81.22753 37082 ft 449 kts
2026-04-20 23:15 24.09499 -81.21943 37074 ft 449 kts 359°
2026-04-20 23:15 24.15671 -81.21080 37077 ft 449 kts 360°
2026-04-20 23:16 24.21885 -81.20188 37079 ft 449 kts 360°
2026-04-20 23:16 24.28106 -81.19292 37080 ft 450 kts 360°
2026-04-20 23:17 24.34269 -81.18404 37078 ft 450 kts 359°
2026-04-20 23:17 24.40479 -81.17508 37077 ft 450 kts 359°
2026-04-20 23:18 24.46682 -81.16612 37084 ft 450 kts 359°
2026-04-20 23:18 24.52896 -81.15713 37083 ft 450 kts 359°
2026-04-20 23:19 24.59098 -81.14854 37093 ft 447 kts 357°
2026-04-20 23:19 24.65295 -81.14221 37085 ft 447 kts 357°
2026-04-20 23:20 24.71493 -81.13562 37090 ft 447 kts 357°
2026-04-20 23:20 24.77693 -81.12899 37155 ft 446 kts 356°
2026-04-20 23:21 24.83856 -81.12240 37098 ft 445 kts 356°
2026-04-20 23:21 24.90021 -81.11580 37095 ft 445 kts 356°
2026-04-20 23:22 24.96153 -81.10923 37096 ft 445 kts 356°
2026-04-20 23:22 25.02319 -81.10261 37098 ft 445 kts 356°
2026-04-20 23:23 25.08497 -81.09598 37103 ft 445 kts 356°
2026-04-20 23:23 25.14592 -81.07903 37103 ft 473 kts 20°
2026-04-20 23:24 25.17320 -81.05754 37094 ft 492 kts 36°
2026-04-20 23:24 25.19543 -81.02809 37099 ft 508 kts 51°
2026-04-20 23:24 25.23406 -80.96243 37115 ft 510 kts 49°
2026-04-20 23:25 25.27582 -80.89981 37091 ft 495 kts 34°
2026-04-20 23:25 25.30289 -80.87816 37107 ft 472 kts 18°
2026-04-20 23:25 25.33207 -80.86274 37097 ft 471 kts 17°
2026-04-20 23:26 25.39173 -80.83153 37102 ft 471 kts 15°
2026-04-20 23:26 25.45094 -80.80162 37104 ft 470 kts 15°
2026-04-20 23:27 25.51064 -80.77168 37104 ft 471 kts 15°
2026-04-20 23:27 25.57032 -80.74174 37108 ft 471 kts 14°
2026-04-20 23:28 25.63010 -80.71172 37106 ft 471 kts 14°
2026-04-20 23:28 25.68947 -80.68188 37113 ft 472 kts 14°
2026-04-20 23:29 25.74692 -80.65770 37107 ft 451 kts
2026-04-20 23:29 25.80886 -80.64335 37125 ft 456 kts
2026-04-20 23:30 25.87078 -80.62845 37111 ft 455 kts
2026-04-20 23:30 25.93279 -80.61369 37121 ft 456 kts
2026-04-20 23:31 25.99452 -80.59899 37119 ft 456 kts
2026-04-20 23:31 26.05660 -80.58419 37120 ft 456 kts
2026-04-20 23:32 26.11879 -80.56935 37121 ft 456 kts
2026-04-20 23:32 26.18089 -80.55452 37124 ft 456 kts
2026-04-20 23:33 26.24305 -80.53965 37124 ft 456 kts
2026-04-20 23:33 26.30519 -80.52477 37127 ft 456 kts
2026-04-20 23:34 26.36730 -80.50989 37135 ft 456 kts
2026-04-20 23:34 26.42910 -80.49506 37134 ft 456 kts
2026-04-20 23:35 26.52227 -80.47267 37146 ft 457 kts
2026-04-20 23:36 26.58430 -80.45779 37116 ft 451 kts
2026-04-20 23:36 26.61470 -80.45444 36471 ft 431 kts 347°
2026-04-20 23:36 26.64377 -80.46045 35295 ft 418 kts 332°
2026-04-20 23:36 26.67121 -80.47121 34240 ft 419 kts 333°
2026-04-20 23:37 26.69878 -80.48170 33076 ft 418 kts 332°
2026-04-20 23:37 26.72623 -80.49259 31934 ft 418 kts 332°
2026-04-20 23:37 26.75360 -80.50367 30836 ft 419 kts 332°
2026-04-20 23:37 26.78111 -80.51495 29973 ft 421 kts 332°
2026-04-20 23:38 26.80820 -80.52612 29334 ft 419 kts 332°
2026-04-20 23:38 26.83534 -80.53734 28822 ft 414 kts 332°
2026-04-20 23:38 26.86215 -80.54844 28273 ft 413 kts 332°
2026-04-20 23:38 26.88942 -80.55975 27642 ft 420 kts 333°
2026-04-20 23:39 26.91693 -80.57114 27068 ft 423 kts 333°
2026-04-20 23:39 26.94452 -80.58258 26507 ft 422 kts 333°
2026-04-20 23:39 26.97205 -80.59400 25935 ft 420 kts 333°
2026-04-20 23:39 26.99932 -80.60532 25362 ft 417 kts 334°
2026-04-20 23:40 27.02650 -80.61661 24792 ft 415 kts 334°
2026-04-20 23:40 27.05348 -80.62783 24228 ft 412 kts 334°
2026-04-20 23:40 27.08031 -80.63898 23654 ft 410 kts 334°
2026-04-20 23:40 27.10694 -80.65009 23042 ft 406 kts 334°
2026-04-20 23:41 27.13318 -80.66108 22615 ft 399 kts 334°
2026-04-20 23:41 27.15888 -80.67185 22273 ft 390 kts 334°
2026-04-20 23:41 27.18446 -80.68257 21887 ft 394 kts 334°
2026-04-20 23:41 27.21011 -80.69332 21505 ft 394 kts 334°
2026-04-20 23:42 27.23579 -80.70409 21134 ft 392 kts 334°
2026-04-20 23:42 27.26126 -80.71477 20759 ft 389 kts 334°
2026-04-20 23:42 27.28642 -80.72534 20396 ft 383 kts 334°
2026-04-20 23:42 27.31111 -80.73571 20032 ft 375 kts 334°
2026-04-20 23:43 27.33538 -80.74591 19677 ft 368 kts 334°
2026-04-20 23:43 27.35914 -80.75590 19326 ft 361 kts 335°
2026-04-20 23:43 27.38239 -80.76588 18942 ft 356 kts 334°
2026-04-20 23:43 27.40501 -80.77567 18626 ft 349 kts 334°
2026-04-20 23:44 27.42758 -80.78543 18265 ft 346 kts 334°
2026-04-20 23:44 27.45006 -80.79515 17877 ft 346 kts 335°
2026-04-20 23:44 27.47244 -80.80483 17524 ft 345 kts 335°
2026-04-20 23:44 27.49487 -80.81453 17153 ft 344 kts 335°
2026-04-20 23:45 27.51717 -80.82418 16674 ft 344 kts 335°
2026-04-20 23:45 27.53949 -80.83384 16270 ft 341 kts 336°
2026-04-20 23:45 27.56148 -80.84346 15880 ft 338 kts 334°
2026-04-20 23:45 27.58165 -80.85659 15513 ft 332 kts 325°
2026-04-20 23:46 27.59453 -80.86577 15309 ft 331 kts 326°
2026-04-20 23:46 27.62064 -80.88417 14875 ft 331 kts 326°
2026-04-20 23:46 27.63355 -80.89327 14659 ft 330 kts 326°
2026-04-20 23:46 27.65954 -80.91159 14214 ft 328 kts 327°
2026-04-20 23:47 27.67230 -80.92060 13996 ft 327 kts 327°
2026-04-20 23:47 27.69157 -80.93420 13622 ft 325 kts 327°
2026-04-20 23:47 27.71688 -80.95208 13168 ft 323 kts 327°
2026-04-20 23:47 27.73590 -80.96552 12837 ft 321 kts 327°
2026-04-20 23:48 27.74867 -80.97454 12625 ft 320 kts 327°
2026-04-20 23:48 27.76726 -80.98768 12303 ft 317 kts 327°
2026-04-20 23:48 27.78575 -81.00075 11989 ft 310 kts 327°
2026-04-20 23:48 27.80407 -81.01371 11675 ft 304 kts 327°
2026-04-20 23:49 27.82161 -81.02612 11373 ft 298 kts 327°
2026-04-20 23:49 27.83900 -81.03844 11075 ft 292 kts 328°
2026-04-20 23:49 27.85607 -81.05052 10774 ft 287 kts 328°
2026-04-20 23:49 27.87280 -81.06238 10488 ft 282 kts 328°
2026-04-20 23:50 27.88926 -81.07405 10202 ft 276 kts 328°
2026-04-20 23:50 27.90539 -81.08548 9913 ft 272 kts 328°
2026-04-20 23:50 27.92154 -81.09619 9599 ft 267 kts 336°
2026-04-20 23:50 27.93861 -81.10388 9304 ft 262 kts 339°
2026-04-20 23:51 27.95546 -81.11140 9038 ft 259 kts 339°
2026-04-20 23:51 27.97225 -81.11896 8774 ft 260 kts 339°
2026-04-20 23:51 27.98901 -81.12655 8529 ft 260 kts 339°
2026-04-20 23:51 28.00579 -81.13418 8259 ft 259 kts 339°
2026-04-20 23:52 28.02258 -81.14181 8002 ft 259 kts 339°
2026-04-20 23:52 28.03929 -81.14942 7733 ft 258 kts 339°
2026-04-20 23:52 28.05568 -81.15689 7479 ft 256 kts 339°
2026-04-20 23:52 28.07204 -81.16458 7218 ft 252 kts 335°
2026-04-20 23:53 28.08758 -81.17347 6944 ft 248 kts 334°
2026-04-20 23:53 28.10296 -81.18226 6687 ft 244 kts 335°
2026-04-20 23:53 28.11786 -81.19071 6424 ft 239 kts 335°
2026-04-20 23:53 28.13252 -81.19899 6229 ft 232 kts 335°
2026-04-20 23:54 28.14551 -81.20979 5889 ft 235 kts 313°
2026-04-20 23:54 28.15336 -81.22633 5508 ft 243 kts 288°
2026-04-20 23:54 28.15475 -81.24525 5204 ft 245 kts 270°
2026-04-20 23:54 28.15616 -81.26452 4623 ft 241 kts 294°
2026-04-20 23:55 28.16526 -81.27889 4484 ft 212 kts 328°
2026-04-20 23:55 28.17812 -81.28427 4327 ft 193 kts
2026-04-20 23:55 28.19102 -81.28256 4214 ft 182 kts
2026-04-20 23:55 28.20335 -81.28143 4059 ft 172 kts
2026-04-20 23:56 28.21528 -81.28096 3880 ft 170 kts
2026-04-20 23:56 28.22707 -81.28080 3694 ft 168 kts
2026-04-20 23:56 28.23865 -81.28078 3510 ft 168 kts
2026-04-20 23:56 28.25044 -81.28081 3309 ft 168 kts
2026-04-20 23:57 28.26218 -81.28089 3103 ft 169 kts
2026-04-20 23:57 28.27392 -81.28099 2893 ft 168 kts
2026-04-20 23:57 28.28514 -81.28110 2682 ft 159 kts
2026-04-20 23:57 28.29559 -81.28121 2507 ft 140 kts
2026-04-20 23:58 28.30509 -81.28129 2333 ft 136 kts
2026-04-20 23:58 28.31460 -81.28137 2148 ft 135 kts
2026-04-20 23:58 28.32389 -81.28146 1973 ft 132 kts
2026-04-20 23:58 28.33303 -81.28154 1803 ft 131 kts
2026-04-20 23:59 28.34225 -81.28163 1634 ft 131 kts
2026-04-20 23:59 28.35120 -81.28171 1455 ft 129 kts
2026-04-20 23:59 28.36019 -81.28180 1285 ft 129 kts
2026-04-20 23:59 28.36925 -81.28183 1112 ft 133 kts
2026-04-21 00:00 28.37851 -81.28179 894 ft 133 kts
2026-04-21 00:00 28.38772 -81.28148 734 ft 131 kts
2026-04-21 00:00 28.39665 -81.28167 494 ft 128 kts
2026-04-21 00:00 28.40585 -81.28202 334 ft 132 kts
2026-04-21 00:01 28.41506 -81.28215 198 ft 129 kts 359°
2026-04-21 00:01 28.42414 -81.28240 103 ft 124 kts 359°
2026-04-21 00:01 28.43090 -81.28244 97 ft 82 kts
2026-04-21 00:01 28.43509 -81.28248 100 ft 55 kts 359°
2026-04-21 00:02 28.43790 -81.28271 102 ft 28 kts 338°
2026-04-21 00:02 28.43857 -81.28338 101 ft 5 kts 302°
2026-04-21 00:02 28.43861 -81.28345 101 ft 0 kts 300°
2026-04-21 00:02 28.43869 -81.28363 99 ft 5 kts 295°
2026-04-21 00:03 28.43877 -81.28418 98 ft 9 kts 269°
2026-04-21 00:03 28.43876 -81.28495 100 ft 9 kts 268°
2026-04-21 00:03 28.43875 -81.28559 103 ft 8 kts 269°
2026-04-21 00:03 28.43876 -81.28627 103 ft 10 kts 268°
2026-04-21 00:04 28.43876 -81.28703 107 ft 8 kts 269°
2026-04-21 00:04 28.43874 -81.28773 110 ft 13 kts 270°
2026-04-21 00:04 28.43872 -81.28928 110 ft 26 kts 270°
2026-04-21 00:04 28.43870 -81.29153 104 ft 29 kts 269°
2026-04-21 00:05 28.43816 -81.29263 101 ft 15 kts 184°
2026-04-21 00:05 28.43705 -81.29263 101 ft 17 kts 179°
2026-04-21 00:05 28.43590 -81.29266 101 ft 16 kts 196°
2026-04-21 00:05 28.43551 -81.29367 101 ft 16 kts 269°
2026-04-21 00:06 28.43552 -81.29502 102 ft 18 kts 270°
2026-04-21 00:06 28.43549 -81.29656 100 ft 21 kts 267°
2026-04-21 00:06 28.43534 -81.29796 97 ft 12 kts 213°
2026-04-21 00:06 28.43444 -81.29806 98 ft 14 kts 180°
2026-04-21 00:07 28.43330 -81.29806 98 ft 20 kts 181°
2026-04-21 00:07 28.43149 -81.29804 100 ft 30 kts 179°
2026-04-21 00:07 28.42961 -81.29801 99 ft 28 kts 176°
2026-04-21 00:07 28.42759 -81.29798 98 ft 30 kts 180°
2026-04-21 00:08 28.42544 -81.29797 98 ft 32 kts 180°
2026-04-21 00:08 28.42342 -81.29794 98 ft 13 kts 178°
2026-04-21 00:08 28.42271 -81.29832 97 ft 10 kts 263°
2026-04-21 00:08 28.42280 -81.29918 97 ft 12 kts 269°
2026-04-21 00:09 28.42278 -81.30024 97 ft 15 kts 270°
2026-04-21 00:09 28.42277 -81.30150 97 ft 17 kts 270°
2026-04-21 00:09 28.42276 -81.30296 97 ft 20 kts 269°
2026-04-21 00:09 28.42269 -81.30461 99 ft 22 kts 266°
2026-04-21 00:10 28.42257 -81.30640 101 ft 23 kts 265°
2026-04-21 00:10 28.42243 -81.30838 98 ft 26 kts 265°
2026-04-21 00:10 28.42235 -81.31024 99 ft 23 kts 274°
2026-04-21 00:10 28.42263 -81.31208 98 ft 25 kts 278°
2026-04-21 00:11 28.42269 -81.31410 98 ft 26 kts 269°
2026-04-21 00:11 28.42267 -81.31601 100 ft 19 kts 269°
2026-04-21 00:11 28.42256 -81.31751 100 ft 17 kts 238°
2026-04-21 00:11 28.42178 -81.31781 101 ft 13 kts 189°
2026-04-21 00:12 28.42080 -81.31793 103 ft 15 kts 184°
2026-04-21 00:12 28.41963 -81.31794 102 ft 18 kts 179°
2026-04-21 00:12 28.41830 -81.31793 102 ft 20 kts 180°
2026-04-21 00:12 28.41681 -81.31792 102 ft 23 kts 180°
2026-04-21 00:13 28.41515 -81.31791 101 ft 25 kts 181°
2026-04-21 00:13 28.41353 -81.31796 100 ft 19 kts 153°
2026-04-21 00:13 28.41310 -81.31697 97 ft 8 kts 146°
2026-04-21 00:13 28.41271 -81.31703 97 ft 6 kts 201°
2026-04-21 00:14 28.41220 -81.31706 98 ft 8 kts 178°
2026-04-21 00:14 28.41217 -81.31707 99 ft 0 kts 181°
2026-04-21 00:15 28.16904 -81.28159 4444 ft 206 kts 338°
2026-04-21 00:15 28.36294 -81.28182 1256 ft 129 kts
2026-04-21 00:15 28.42174 -81.28235 106 ft 130 kts 358°
2026-04-21 00:16 28.39952 -81.28181 454 ft 132 kts
2026-04-21 00:16 28.40880 -81.28204 296 ft 135 kts
2026-04-21 00:16 28.41795 -81.28223 139 ft 133 kts 359°
2026-04-21 00:16 28.42589 -81.28242 101 ft 119 kts
2026-04-21 00:17 28.41217 -81.31707 100 ft 0 kts 181°